Location: Austin
(30.3000°N, 97.7500°W)
Time: 05:21:33
(UTC-06:00)

Cosmos 1624 Rocket - Pass Details

Date: 03 March 2026
Orbit: 753 x 779 km, 74.0° (Epoch: 5 March)

Event Time Altitude Azimuth Distance (km) Brightness Sun altitude
Rises 18:48:12 0° 348° (NNW) 3,224 7.3 -4.4°
Reaches altitude 10° 18:50:37 10° 352° (N) 2,292 6.5 -5.0°
Maximum altitude 18:55:46 62° 73° (ENE) 850 4.0 -6.1°
Drops below altitude 10° 19:00:50 10° 153° (SSE) 2,268 6.2 -7.2°
Sets 19:03:13 0° 157° (SSE) 3,188 7.0 -7.7°
